Back to catalog

KUIPER-00301

AliveCommunicationsLEO
NORAD 68598·PAYLOAD·🇺🇸 United States

Launched Apr 4, 2026 from Cape Canaveral Space Force Station

Loading…

Next Passes (next 24 hours)

TLE

FreshSource: CelesTrak SupGP

Epoch: Sep 14, 2026, 17:07 UTC

1 68598C 26072AB  26257.71363426 -.00003149  00000+0 -44713-3 0  2574
2 68598  51.9005 119.1784 0001995 174.4548 333.0288 14.76496902    12

Track KUIPER-00301 in real time with AllMySat

Download on the App Store